Regional Weather Roundup
Issued by NWS

Home | Current Version | Previous Version | Text Only | Print | Product List | Glossary On
Versions: 1 2 3 4 5 6 7 8 9 10 11 12 13 14 15 16 17 18 19 20 21 22 23 24 25 26 27 28 29 30 31 32 33 34 35 36 37 38 39 40 41 42 43 44 45 46 47 48 49 50
000
ASUS46 KSEW 222010
RWRWA

WASHINGTON REGIONAL WEATHER ROUNDUP
NATIONAL WEATHER SERVICE SEATTLE WA
100 PM PDT SAT JUL 22 2017

NOTE:"FAIR" INDICATES FEW OR NO CLOUDS BELOW 12,000 FEET WITH NO
SIGNIFICANT WEATHER AND/OR OBSTRUCTIONS TO VISIBILITY.

WAZ507-509-555>559-222100-
SEATTLE, TACOMA, EVERETT, AND VICINITY

CITY           SKY/WX    TMP DP  RH WIND       PRES   REMARKS
EVERETT        MOSUNNY   75  56  51 SW9       30.19F
BOEING FIELD   MOSUNNY   78  61  55 S7        30.16F
RENTON         SUNNY     79  60  52 N6        30.15F
SEATAC AIRPORT MOSUNNY   78  58  49 VRB6      30.17F
JBLM-MCCHORD   SUNNY     80  63  56 N8        30.16F
PUYALLUP       FAIR      82  61  47 CALM      30.17F
BREMERTON      SUNNY     77  61  57 W12       30.17F
JBLM-FT LEWIS  SUNNY     81  64  56 W7        30.15F
TACOMA NARROWS MOSUNNY   76  59  55 VRB3      30.17F
$$

WAZ001-503-506-510-514-515-222100-
NORTH INTERIOR

CITY           SKY/WX    TMP DP  RH WIND       PRES   REMARKS
BELLINGHAM     CLOUDY    73  61  65 N5        30.19S
FRIDAY HARBOR  CLOUDY    73  57  57 VRB6      30.20S
EASTSOUND      CLOUDY    64  59  82 N5        30.20S
PORT ANGELES   CLOUDY    64  55  72 N5        30.21R
EDIZ HOOK      CLOUDY    60  53  79 NW5       30.21R
PORT TOWNSEND  FAIR      73  57  56 SE6       30.17F
NAS WHIDBEY    PTSUNNY   71  53  52 N9        30.22S
ARLINGTON      NOT AVBL
BURLINGTON     CLOUDY    75  61  60 NW7       30.17F
$$

WAZ020-022-039-040-504-511-512-222100-
SOUTHWEST INTERIOR

CITY           SKY/WX    TMP DP  RH WIND       PRES   REMARKS
SHELTON        MOSUNNY   82  63  52 SW10G20   30.14F
OLYMPIA        SUNNY     81  63  54 NW7       30.16F
CHEHALIS       FAIR      82  64  54 NE5       30.16F
KELSO          SUNNY     81  63  54 W7        30.15F
VANCOUVER      SUNNY     82  63  52 VRB6      30.13F
SCAPPOOSE, OR  SUNNY     84  61  45 VRB5      30.12F
PORTLAND, OR   MOSUNNY   81  62  52 W10       30.13F
$$

WAZ021-516-517-222100-
WASHINGTON COAST

CITY           SKY/WX    TMP DP  RH WIND       PRES   REMARKS
FORKS          CLOUDY    63  63 100 S6        30.20S FOG
HOQUIAM        CLOUDY    67  63  87 W9        30.20S
ASTORIA, OR    SUNNY     74  63  68 NW8       30.18S
$$

WAZ019-023-024-040-567>569-222100-
CASCADE MOUNTAINS AND COLUMBIA GORGE

CITY           SKY/WX    TMP DP  RH WIND       PRES   REMARKS
STAMPEDE PASS  MOSUNNY   71  56  58 VRB6      30.28F
TROUTDALE, OR  SUNNY     84  58  40 VRB5      30.12F
HOOD RIVER, OR CLEAR     86  54  32 NW6       30.10F
THE DALLES, OR SUNNY     91  52  26 NW8       30.06F
$$

WAZ026-027-041>044-520-521-222100-
EAST SLOPES

CITY           SKY/WX    TMP DP  RH WIND       PRES   REMARKS
OMAK           SUNNY     89  45  21 S9        30.08F
WENATCHEE      SUNNY     86  51  29 NW6       30.09F
ELLENSBURG     SUNNY     89  55  31 SW8       30.13F
YAKIMA         SUNNY     89  48  24 VRB3      30.11F
SUNNYSIDE ARPT   N/A     82  49  30 CALM      30.10F
YAKIMA TC      FAIR      87  47  25 S3        30.10F
$$

WAZ028-034-035-222100-
COLUMBIA BASIN

CITY           SKY/WX    TMP DP  RH WIND       PRES   REMARKS
EPHRATA        SUNNY     86  49  27 SE10      30.10F
MOSES LAKE     SUNNY     87  51  28 VRB6      30.12F
PASCO          SUNNY     88  54  31 N7        30.09F
RICHLAND ARPT  CLEAR     90  50  25 E5        30.08F
HERMISTON, OR  SUNNY     88  48  25 VRB3      30.09F
$$

WAZ036>038-222100-
NORTHEAST WASHINGTON

CITY           SKY/WX    TMP DP  RH WIND       PRES   REMARKS
SPOKANE GEIGER MOSUNNY   82  43  25 SW7       30.17F
SPOKANE FELTS  SUNNY     83  44  25 W8        30.16F
FAIRCHILD AFB  SUNNY     83  45  26 S6        30.18S
COEURDALENE,ID SUNNY     82  46  28 VRB3      30.18F
DEER PARK      SUNNY     83  43  24 VRB5      30.16F
$$

WAZ029>033-222100-
SOUTHEAST WASHINGTON

CITY           SKY/WX    TMP DP  RH WIND       PRES   REMARKS
PULLMAN        SUNNY     81  43  26 VRB3      30.20F
LEWISTON, ID   SUNNY     87  42  20 VRB3      30.14F
WALLA WALLA    SUNNY     87  41  19 VRB5      30.12F
PENDLETON, OR  SUNNY     89  39  17 N9        30.12F
$$



USA.gov is the U.S. government's official web portal to all federal, state and local government web resources and services.